This demonstration page uses our WeatherBlox Daily Observations layout. Learn more.

Left ArrowRight Arrow

Hourly Observations for June 1, 2019

Temp ( °F °C ) Dew Point ( °F °C ) Humidity (%) Winds ( mph kmh ) Pressure ( in mb ) Visibility ( mi km ) Precip ( " mm )
12:56 am 00:56 Clear 63 17.2 58 14.4 84 84 S 5 7 29.87 1011 10 16 0.00 0.00
1:56 am 01:56 Clear 62 16.7 58 14.4 86 86 SSW 8 13 29.86 1011 10 16 0.00 0.00
2:56 am 02:56 Mostly Clear 65 18.3 57 13.9 76 76 WSW 5 7 29.87 1012 10 16 0.00 0.00
3:56 am 03:56 Clear 61 16.1 56 13.3 84 84 SW 5 7 29.88 1012 10 16 0.00 0.00
4:56 am 04:56 Clear 60 15.6 56 13.3 86 86 NW 7 11 29.87 1012 10 16 0.00 0.00
5:56 am 05:56 Clear 59 15 52 11.1 78 78 NNW 8 13 29.88 1012 10 16 0.00 0.00
6:56 am 06:56 Sunny 58 14.4 52 11.1 81 81 NNW 10 17 29.91 1013 10 16 0.00 0.00
7:56 am 07:56 Sunny 60 15.6 53 11.7 78 78 NNW 15 24 29.92 1013 10 16 0.00 0.00
8:56 am 08:56 Sunny 64 17.8 54 12.2 70 70 NNW 16 26 29.95 1014 10 16 0.00 0.00
9:56 am 09:56 Sunny 69 20.6 54 12.2 59 59 N 23 37 29.96 1014 10 16 0.00 0.00
10:56 am 10:56 Sunny 71 21.7 56 13.3 59 59 N 20 31 29.96 1015 10 16 0.00 0.00
11:56 am 11:56 Sunny 72 22.2 57 13.9 59 59 N 16 26 29.97 1015 10 16 0.00 0.00
12:56 pm 12:56 Sunny 72 22.2 55 12.8 55 55 NNE 15 24 29.98 1015 10 16 0.00 0.00
1:56 pm 13:56 Sunny 73 22.8 54 12.2 51 51 N 9 15 29.98 1015 10 16 0.00 0.00
2:56 pm 14:56 Sunny 74 23.3 53 11.7 48 48 N 10 17 29.97 1015 10 16 0.00 0.00
3:56 pm 15:56 Sunny 75 23.9 52 11.1 45 45 N 10 17 29.96 1015 10 16 0.00 0.00
4:56 pm 16:56 Sunny 75 23.9 53 11.7 46 46 NNE 12 19 29.95 1014 10 16 0.00 0.00
5:56 pm 17:56 Sunny 74 23.3 54 12.2 50 50 NNE 9 15 29.94 1014 10 16 0.00 0.00
6:56 pm 18:56 Sunny 73 22.8 52 11.1 48 48 NNE 9 15 29.95 1014 10 16 0.00 0.00
7:56 pm 19:56 Sunny 71 21.7 52 11.1 51 51 NNE 13 20 29.95 1014 10 16 0.00 0.00
8:56 pm 20:56 Sunny 66 18.9 52 11.1 61 61 NNE 10 17 29.96 1015 10 16 0.00 0.00
9:56 pm 21:56 Clear 62 16.7 51 10.6 67 67 NNE 7 11 29.99 1016 10 16 0.00 0.00
10:56 pm 22:56 Clear 61 16.1 52 11.1 72 72 NNE 7 11 30.02 1017 10 16 0.00 0.00
11:56 pm 23:56 Clear 60 15.6 52 11.1 75 75 NE 7 11 30.01 1016 10 16 0.00 0.00

Powered by AerisWeather